AAE221 EDDH-LGAV

Flight info

Callsign AAE221
Flight time 2h 44m
Altitude 39000
Route AMLUH2G AMLUH M852 DENIX DCT ZUCKA DCT SODRO DCT RUDNO DCT LAMSI DCT LIMRA DCT MOSAV DCT LURID DCT PODOB DCT MEDUX UM867 KOGAT DCT TALAS DCT SIGFO UM749 ROPOX ROPOX1Q
Aircraft A20N/M-SDE2E3FGHIRWXY/LB1

Departure

Time 2026-04-23 12:56
Airport Hamburg Helmut Schmidt Airport (EDDH)

Arrival

Time 2026-04-23 15:40
Airport Athens Eleftherios Venizelos International Airport (LGAV)
Time Latitude Longitude Altitude Speed Heading
2026-04-23 12:28 53.63003 10.00361 51 ft 0 kts 122°
2026-04-23 12:49 53.63004 10.00360 51 ft 1 kts 122°
2026-04-23 12:50 53.63007 10.00352 51 ft 1 kts 122°
2026-04-23 12:50 53.63009 10.00347 51 ft 1 kts 122°
2026-04-23 12:50 53.63011 10.00340 47 ft 1 kts 122°
2026-04-23 12:50 53.63014 10.00331 48 ft 1 kts 122°
2026-04-23 12:51 53.63019 10.00318 50 ft 2 kts 122°
2026-04-23 12:51 53.63025 10.00302 50 ft 2 kts 122°
2026-04-23 12:51 53.63031 10.00286 47 ft 2 kts 122°
2026-04-23 12:51 53.63037 10.00270 46 ft 2 kts 122°
2026-04-23 12:52 53.63044 10.00251 49 ft 2 kts 122°
2026-04-23 12:52 53.63052 10.00237 47 ft 1 kts 182°
2026-04-23 12:52 53.63039 10.00231 49 ft 0 kts 212°
2026-04-23 12:52 53.63040 10.00231 49 ft 0 kts 212°
2026-04-23 12:53 53.63039 10.00230 51 ft 1 kts 212°
2026-04-23 12:53 53.63020 10.00212 48 ft 5 kts 210°
2026-04-23 12:53 53.62979 10.00171 51 ft 9 kts 210°
2026-04-23 12:54 53.62920 10.00107 49 ft 11 kts 217°
2026-04-23 12:54 53.62860 10.00013 51 ft 13 kts 238°
2026-04-23 12:54 53.62817 9.99877 50 ft 13 kts 244°
2026-04-23 12:54 53.62848 9.99758 51 ft 13 kts 328°
2026-04-23 12:55 53.62940 9.99674 52 ft 31 kts 332°
2026-04-23 12:55 53.63402 9.99264 52 ft 114 kts 332°
2026-04-23 12:55 53.63958 9.98781 52 ft 156 kts 330°
2026-04-23 12:55 53.65041 9.97851 323 ft 189 kts 329°
2026-04-23 12:56 53.66314 9.96723 766 ft 224 kts 328°
2026-04-23 12:56 53.67739 9.95466 1596 ft 232 kts 331°
2026-04-23 12:56 53.69286 9.94642 2457 ft 239 kts 351°
2026-04-23 12:56 53.70958 9.94626 3497 ft 241 kts
2026-04-23 12:57 53.72622 9.94818 4577 ft 242 kts 13°
2026-04-23 12:57 53.74103 9.96196 5596 ft 250 kts 41°
2026-04-23 12:57 53.75059 9.98729 6486 ft 264 kts 69°
2026-04-23 12:57 53.75214 10.01843 7356 ft 279 kts 95°
2026-04-23 12:58 53.74501 10.04960 8243 ft 292 kts 120°
2026-04-23 12:58 53.73215 10.07682 9145 ft 299 kts 126°
2026-04-23 12:58 53.71977 10.10528 10069 ft 301 kts 120°
2026-04-23 12:58 53.70857 10.13548 10900 ft 305 kts 117°
2026-04-23 12:59 53.69789 10.16674 11730 ft 308 kts 116°
2026-04-23 12:59 53.68520 10.19570 12529 ft 317 kts 136°
2026-04-23 12:59 53.66752 10.21421 13279 ft 322 kts 160°
2026-04-23 12:59 53.64586 10.22539 14111 ft 326 kts 165°
2026-04-23 13:00 53.62381 10.23490 14816 ft 330 kts 166°
2026-04-23 13:00 53.60138 10.24436 15165 ft 333 kts 166°
2026-04-23 13:00 53.57899 10.25408 15281 ft 331 kts 165°
2026-04-23 13:00 53.55665 10.26406 15316 ft 332 kts 165°
2026-04-23 13:01 53.53444 10.27415 15318 ft 328 kts 165°
2026-04-23 13:01 53.51238 10.28424 15328 ft 329 kts 165°
2026-04-23 13:01 53.49043 10.29429 15657 ft 333 kts 164°
2026-04-23 13:01 53.46784 10.30460 16446 ft 333 kts 164°
2026-04-23 13:02 53.44560 10.31473 17139 ft 335 kts 164°
2026-04-23 13:02 53.42297 10.32453 17877 ft 340 kts 167°
2026-04-23 13:02 53.39965 10.33242 18607 ft 342 kts 167°
2026-04-23 13:02 53.37634 10.34029 19263 ft 344 kts 167°
2026-04-23 13:03 53.35270 10.34827 19771 ft 350 kts 167°
2026-04-23 13:03 53.32874 10.35638 20415 ft 351 kts 167°
2026-04-23 13:03 53.30470 10.36453 21040 ft 354 kts 167°
2026-04-23 13:03 53.28050 10.37272 21645 ft 356 kts 166°
2026-04-23 13:04 53.25622 10.38094 22326 ft 357 kts 166°
2026-04-23 13:04 53.23167 10.38923 22860 ft 362 kts 166°
2026-04-23 13:04 53.20690 10.39759 23455 ft 363 kts 166°
2026-04-23 13:04 53.18202 10.40598 24007 ft 366 kts 166°
2026-04-23 13:05 53.15723 10.41433 24505 ft 368 kts 166°
2026-04-23 13:05 53.13202 10.42280 24976 ft 370 kts 166°
2026-04-23 13:05 53.10659 10.43134 25433 ft 373 kts 166°
2026-04-23 13:05 53.08109 10.43990 25892 ft 375 kts 166°
2026-04-23 13:06 53.02954 10.45717 26799 ft 380 kts 166°
2026-04-23 13:06 53.00354 10.46586 27232 ft 382 kts 166°
2026-04-23 13:06 52.97717 10.47468 27413 ft 392 kts 166°
2026-04-23 13:07 52.95320 10.48271 27499 ft 402 kts 166°
2026-04-23 13:07 52.92541 10.49197 27616 ft 412 kts 166°
2026-04-23 13:07 52.89689 10.50147 27725 ft 423 kts 166°
2026-04-23 13:07 52.86768 10.51118 27836 ft 433 kts 166°
2026-04-23 13:08 52.83771 10.52112 27945 ft 443 kts 166°
2026-04-23 13:08 52.80724 10.53120 28186 ft 449 kts 166°
2026-04-23 13:08 52.77690 10.54120 28585 ft 450 kts 166°
2026-04-23 13:08 52.74615 10.55133 29012 ft 452 kts 166°
2026-04-23 13:09 52.71517 10.56154 29345 ft 454 kts 166°
2026-04-23 13:09 52.68411 10.57176 29690 ft 457 kts 166°
2026-04-23 13:09 52.65285 10.58204 30009 ft 460 kts 166°
2026-04-23 13:09 52.62122 10.59243 30249 ft 464 kts 166°
2026-04-23 13:10 52.58941 10.60286 30590 ft 466 kts 166°
2026-04-23 13:10 52.55757 10.61327 30914 ft 467 kts 166°
2026-04-23 13:10 52.52565 10.62370 31230 ft 469 kts 165°
2026-04-23 13:10 52.49369 10.63412 31625 ft 468 kts 165°
2026-04-23 13:11 52.46181 10.64450 32035 ft 467 kts 165°
2026-04-23 13:11 52.43042 10.65470 32447 ft 465 kts 165°
2026-04-23 13:11 52.39872 10.66500 32853 ft 464 kts 165°
2026-04-23 13:11 52.36709 10.67526 33252 ft 462 kts 165°
2026-04-23 13:12 52.33555 10.68548 33646 ft 461 kts 165°
2026-04-23 13:12 52.30414 10.69565 34027 ft 459 kts 165°
2026-04-23 13:12 52.27283 10.70576 34392 ft 458 kts 165°
2026-04-23 13:12 52.24172 10.71578 34793 ft 454 kts 165°
2026-04-23 13:13 52.21073 10.72577 35066 ft 454 kts 165°
2026-04-23 13:13 52.17977 10.73574 35300 ft 454 kts 165°
2026-04-23 13:13 52.14881 10.74570 35554 ft 453 kts 165°
2026-04-23 13:13 52.11780 10.75565 35804 ft 453 kts 165°
2026-04-23 13:14 52.08693 10.76554 36048 ft 452 kts 165°
2026-04-23 13:14 52.05640 10.77531 36274 ft 452 kts 165°
2026-04-23 13:14 52.02557 10.78516 36510 ft 452 kts 165°
2026-04-23 13:14 51.99463 10.79501 36790 ft 450 kts 165°
2026-04-23 13:15 51.96396 10.80478 37009 ft 449 kts 165°
2026-04-23 13:15 51.90217 10.82445 37234 ft 454 kts 165°
2026-04-23 13:15 51.87120 10.83427 37439 ft 453 kts 165°
2026-04-23 13:16 51.84025 10.84407 37645 ft 453 kts 165°
2026-04-23 13:16 51.80967 10.85373 37847 ft 453 kts 165°
2026-04-23 13:16 51.77875 10.86349 38037 ft 452 kts 165°
2026-04-23 13:16 51.74785 10.87323 38235 ft 452 kts 165°
2026-04-23 13:17 51.71691 10.88298 38286 ft 452 kts 165°
2026-04-23 13:17 51.65705 10.91023 38281 ft 444 kts 153°
2026-04-23 13:18 51.60163 10.95318 38280 ft 442 kts 149°
2026-04-23 13:18 51.54651 10.99698 38281 ft 442 kts 149°
2026-04-23 13:19 51.49153 11.04027 38277 ft 441 kts 149°
2026-04-23 13:19 51.43634 11.08357 38274 ft 441 kts 149°
2026-04-23 13:20 51.38074 11.12710 38276 ft 446 kts 149°
2026-04-23 13:20 51.32497 11.17059 38272 ft 445 kts 149°
2026-04-23 13:21 51.26917 11.21400 38290 ft 445 kts 149°
2026-04-23 13:21 51.21339 11.25727 38276 ft 446 kts 149°
2026-04-23 13:22 51.15791 11.30022 38273 ft 446 kts 149°
2026-04-23 13:22 51.10207 11.34332 38274 ft 446 kts 149°
2026-04-23 13:23 51.04619 11.38633 38275 ft 446 kts 149°
2026-04-23 13:23 50.99018 11.42935 38279 ft 450 kts 149°
2026-04-23 13:24 50.93368 11.47260 38281 ft 450 kts 149°
2026-04-23 13:24 50.87734 11.51560 38270 ft 450 kts 149°
2026-04-23 13:25 50.82128 11.55829 38275 ft 450 kts 149°
2026-04-23 13:25 50.76448 11.60143 38300 ft 451 kts 149°
2026-04-23 13:25 50.73659 11.62258 38466 ft 450 kts 149°
2026-04-23 13:26 50.70836 11.64395 38636 ft 450 kts 149°
2026-04-23 13:26 50.68013 11.66529 38778 ft 450 kts 149°
2026-04-23 13:26 50.65183 11.68664 38924 ft 450 kts 149°
2026-04-23 13:26 50.62358 11.70793 39043 ft 450 kts 149°
2026-04-23 13:27 50.59530 11.72922 39102 ft 452 kts 149°
2026-04-23 13:27 50.53831 11.77205 39228 ft 454 kts 149°
2026-04-23 13:28 50.48115 11.81487 39269 ft 454 kts 149°
2026-04-23 13:28 50.42341 11.85398 39272 ft 456 kts 153°
2026-04-23 13:29 50.36474 11.89186 39259 ft 455 kts 153°
2026-04-23 13:29 50.30605 11.92975 39262 ft 456 kts 153°
2026-04-23 13:30 50.24731 11.96755 39270 ft 455 kts 153°
2026-04-23 13:30 50.18919 12.00482 39292 ft 450 kts 153°
2026-04-23 13:31 50.13087 12.04218 39265 ft 456 kts 153°
2026-04-23 13:31 50.07253 12.07942 39265 ft 455 kts 153°
2026-04-23 13:32 50.01397 12.11669 39266 ft 455 kts 153°
2026-04-23 13:32 49.95526 12.15396 39262 ft 454 kts 153°
2026-04-23 13:33 49.89713 12.19078 39266 ft 455 kts 153°
2026-04-23 13:33 49.83841 12.22787 39266 ft 456 kts 153°
2026-04-23 13:34 49.77960 12.26491 39270 ft 456 kts 153°
2026-04-23 13:34 49.72085 12.30181 39266 ft 455 kts 153°
2026-04-23 13:35 49.66207 12.33866 39255 ft 456 kts 153°
2026-04-23 13:35 49.60317 12.37547 39255 ft 456 kts 153°
2026-04-23 13:36 49.54469 12.41192 39262 ft 456 kts 153°
2026-04-23 13:36 49.48592 12.44845 39252 ft 453 kts 153°
2026-04-23 13:37 49.42757 12.48462 39234 ft 451 kts 153°
2026-04-23 13:37 49.36974 12.52252 39262 ft 451 kts 147°
2026-04-23 13:38 49.31740 12.57418 39255 ft 445 kts 135°
2026-04-23 13:38 49.27383 12.63706 39263 ft 440 kts 128°
2026-04-23 13:39 49.23094 12.70421 39250 ft 440 kts 129°
2026-04-23 13:39 49.18792 12.77086 39250 ft 441 kts 129°
2026-04-23 13:40 49.14498 12.83708 39252 ft 441 kts 129°
2026-04-23 13:40 49.10169 12.90368 39257 ft 441 kts 129°
2026-04-23 13:41 49.05841 12.97009 39252 ft 442 kts 129°
2026-04-23 13:41 49.01492 13.03665 39253 ft 442 kts 129°
2026-04-23 13:42 48.97157 13.10283 39242 ft 440 kts 129°
2026-04-23 13:42 48.92855 13.16833 39249 ft 440 kts 129°
2026-04-23 13:43 48.88525 13.23410 39255 ft 440 kts 129°
2026-04-23 13:43 48.84877 13.28937 39238 ft 443 kts 129°
2026-04-23 13:44 48.80509 13.35538 39242 ft 442 kts 129°
2026-04-23 13:44 48.76182 13.42060 39229 ft 441 kts 129°
2026-04-23 13:45 48.71827 13.48610 39221 ft 441 kts 130°
2026-04-23 13:45 48.67477 13.55137 39211 ft 440 kts 130°
2026-04-23 13:46 48.62852 13.61334 39238 ft 449 kts 137°
2026-04-23 13:46 48.57903 13.67151 39237 ft 450 kts 137°
2026-04-23 13:47 48.52972 13.72964 39230 ft 450 kts 137°
2026-04-23 13:47 48.48068 13.78739 39229 ft 450 kts 137°
2026-04-23 13:48 48.43144 13.84527 39231 ft 448 kts 137°
2026-04-23 13:48 48.38220 13.90293 39244 ft 447 kts 137°
2026-04-23 13:49 48.33294 13.96051 39227 ft 452 kts 137°
2026-04-23 13:49 48.28327 14.01842 39238 ft 452 kts 137°
2026-04-23 13:50 48.23358 14.07617 39233 ft 452 kts 137°
2026-04-23 13:50 48.18384 14.13386 39232 ft 451 kts 137°
2026-04-23 13:51 48.13418 14.19132 39231 ft 451 kts 137°
2026-04-23 13:51 48.08426 14.24896 39234 ft 455 kts 137°
2026-04-23 13:52 48.03402 14.30677 39228 ft 455 kts 138°
2026-04-23 13:52 47.98389 14.36431 39225 ft 455 kts 138°
2026-04-23 13:53 47.93399 14.42146 39213 ft 455 kts 138°
2026-04-23 13:53 47.88366 14.47862 39213 ft 455 kts 139°
2026-04-23 13:54 47.83279 14.53499 39196 ft 456 kts 139°
2026-04-23 13:54 47.78187 14.59141 39190 ft 456 kts 139°
2026-04-23 13:55 47.73099 14.64783 39180 ft 456 kts 139°
2026-04-23 13:55 47.68042 14.70376 39188 ft 456 kts 139°
2026-04-23 13:56 47.62944 14.75997 39182 ft 457 kts 139°
2026-04-23 13:56 47.57830 14.81618 39187 ft 458 kts 138°
2026-04-23 13:57 47.52700 14.87245 39171 ft 459 kts 138°
2026-04-23 13:57 47.47562 14.92869 39165 ft 458 kts 139°
2026-04-23 13:58 47.42446 14.98456 39158 ft 456 kts 140°
2026-04-23 13:58 47.37346 15.04012 39155 ft 456 kts 140°
2026-04-23 13:59 47.32275 15.09522 39173 ft 456 kts 140°
2026-04-23 13:59 47.27148 15.15081 39148 ft 457 kts 140°
2026-04-23 14:00 47.22851 15.19727 39140 ft 457 kts 140°
2026-04-23 14:00 47.16886 15.26160 39136 ft 457 kts 141°
2026-04-23 14:01 47.11758 15.31677 39147 ft 457 kts 141°
2026-04-23 14:01 47.06618 15.37194 39119 ft 457 kts 141°
2026-04-23 14:02 47.01505 15.42668 39112 ft 458 kts 141°
2026-04-23 14:02 46.96345 15.48178 39112 ft 458 kts 141°
2026-04-23 14:03 46.91183 15.53678 39115 ft 459 kts 141°
2026-04-23 14:03 46.86013 15.59172 39118 ft 460 kts 141°
2026-04-23 14:04 46.80833 15.64663 39121 ft 460 kts 141°
2026-04-23 14:04 46.75640 15.70154 39118 ft 461 kts 141°
2026-04-23 14:05 46.70466 15.75613 39122 ft 462 kts 141°
2026-04-23 14:05 46.65240 15.81113 39127 ft 463 kts 141°
2026-04-23 14:06 46.60010 15.86604 39133 ft 464 kts 141°
2026-04-23 14:06 46.54762 15.92101 39137 ft 464 kts 141°
2026-04-23 14:07 46.49541 15.97556 39116 ft 463 kts 141°
2026-04-23 14:07 46.41722 16.05699 39112 ft 459 kts 141°
2026-04-23 14:08 46.36524 16.11098 39117 ft 460 kts 141°
2026-04-23 14:08 46.31303 16.16508 39119 ft 460 kts 141°
2026-04-23 14:09 46.26128 16.21855 39117 ft 459 kts 141°
2026-04-23 14:09 46.20919 16.27226 39121 ft 459 kts 141°
2026-04-23 14:10 46.15715 16.32578 39117 ft 459 kts 141°
2026-04-23 14:10 46.10541 16.37887 39118 ft 459 kts 141°
2026-04-23 14:11 46.05332 16.43220 39115 ft 459 kts 141°
2026-04-23 14:11 46.00114 16.48550 39118 ft 460 kts 141°
2026-04-23 14:12 45.94893 16.53868 39118 ft 460 kts 141°
2026-04-23 14:12 45.89670 16.59177 39122 ft 460 kts 141°
2026-04-23 14:13 45.84443 16.64478 39120 ft 460 kts 141°
2026-04-23 14:13 45.79669 16.70367 39083 ft 453 kts 127°
2026-04-23 14:14 45.77694 16.73981 38786 ft 454 kts 118°
2026-04-23 14:14 45.75860 16.77578 39074 ft 453 kts 129°
2026-04-23 14:14 45.71240 16.83788 39124 ft 456 kts 135°
2026-04-23 14:15 45.66425 16.89667 39125 ft 455 kts 136°
2026-04-23 14:15 45.61584 16.95510 39124 ft 455 kts 136°
2026-04-23 14:16 45.56742 17.01357 39133 ft 455 kts 136°
2026-04-23 14:16 45.51938 17.07151 39120 ft 454 kts 136°
2026-04-23 14:17 45.47093 17.12980 39120 ft 458 kts 136°
2026-04-23 14:17 45.42178 17.18877 39119 ft 465 kts 136°
2026-04-23 14:18 45.37194 17.24837 39120 ft 470 kts 136°
2026-04-23 14:18 45.37058 17.24999 39120 ft 470 kts 136°
2026-04-23 14:19 45.34941 17.27527 39134 ft 472 kts 136°
2026-04-23 14:19 45.29895 17.33538 39117 ft 474 kts 136°
2026-04-23 14:20 45.24836 17.39551 39110 ft 474 kts 137°
2026-04-23 14:20 45.19810 17.45511 39115 ft 473 kts 136°
2026-04-23 14:21 45.14749 17.51499 39109 ft 473 kts 136°
2026-04-23 14:21 45.09698 17.57461 39112 ft 472 kts 136°
2026-04-23 14:22 45.04655 17.63399 39109 ft 472 kts 136°
2026-04-23 14:22 44.99598 17.69341 39114 ft 472 kts 137°
2026-04-23 14:23 44.94580 17.75220 39109 ft 471 kts 136°
2026-04-23 14:23 44.89521 17.81136 39112 ft 471 kts 137°
2026-04-23 14:24 44.84470 17.87027 39100 ft 471 kts 137°
2026-04-23 14:24 44.79416 17.92909 39099 ft 471 kts 137°
2026-04-23 14:25 44.74383 17.98752 39103 ft 471 kts 137°
2026-04-23 14:25 44.69324 18.04609 39108 ft 469 kts 136°
2026-04-23 14:26 44.64264 18.10458 39108 ft 470 kts 137°
2026-04-23 14:26 44.59242 18.16250 39105 ft 470 kts 137°
2026-04-23 14:27 44.54149 18.22108 39100 ft 470 kts 137°
2026-04-23 14:27 44.49113 18.27887 39102 ft 470 kts 137°
2026-04-23 14:28 44.44037 18.33696 39103 ft 471 kts 136°
2026-04-23 14:28 44.38958 18.39499 39103 ft 471 kts 136°
2026-04-23 14:29 44.33883 18.45283 39104 ft 471 kts 136°
2026-04-23 14:29 44.28787 18.51076 39100 ft 471 kts 137°
2026-04-23 14:30 44.23732 18.56811 39111 ft 472 kts 136°
2026-04-23 14:30 44.18632 18.62583 39102 ft 472 kts 136°
2026-04-23 14:31 44.14388 18.67376 39099 ft 472 kts 136°
2026-04-23 14:31 44.09286 18.73127 39098 ft 472 kts 136°
2026-04-23 14:32 44.04181 18.78867 39099 ft 472 kts 136°
2026-04-23 14:32 43.99066 18.84604 39102 ft 471 kts 136°
2026-04-23 14:33 43.93982 18.90294 39091 ft 470 kts 136°
2026-04-23 14:33 43.88890 18.95982 39090 ft 470 kts 136°
2026-04-23 14:34 43.83793 19.01661 39078 ft 469 kts 136°
2026-04-23 14:34 43.78689 19.07337 39080 ft 471 kts 137°
2026-04-23 14:35 43.73573 19.13010 39076 ft 471 kts 136°
2026-04-23 14:35 43.68502 19.18622 39075 ft 471 kts 136°
2026-04-23 14:36 43.63412 19.24243 39072 ft 471 kts 136°
2026-04-23 14:36 43.58292 19.29885 39066 ft 472 kts 137°
2026-04-23 14:37 43.53152 19.35535 39069 ft 472 kts 137°
2026-04-23 14:37 43.48011 19.41173 39066 ft 472 kts 136°
2026-04-23 14:38 43.42870 19.46799 39065 ft 472 kts 136°
2026-04-23 14:38 43.37758 19.52383 39070 ft 473 kts 137°
2026-04-23 14:39 43.32602 19.58003 39057 ft 473 kts 137°
2026-04-23 14:39 43.27435 19.63618 39065 ft 473 kts 137°
2026-04-23 14:40 43.22277 19.69213 39058 ft 473 kts 137°
2026-04-23 14:40 43.17122 19.74793 39056 ft 472 kts 137°
2026-04-23 14:41 43.11943 19.80387 39059 ft 472 kts 137°
2026-04-23 14:41 43.06781 19.85949 39053 ft 472 kts 137°
2026-04-23 14:42 43.01646 19.91472 39050 ft 473 kts 137°
2026-04-23 14:42 42.96449 19.97046 39054 ft 473 kts 137°
2026-04-23 14:43 42.91259 20.02601 39047 ft 474 kts 137°
2026-04-23 14:43 42.86064 20.08149 39043 ft 474 kts 137°
2026-04-23 14:44 42.80862 20.13694 39060 ft 474 kts 137°
2026-04-23 14:44 42.75689 20.19197 39043 ft 475 kts 137°
2026-04-23 14:45 42.70477 20.24729 39047 ft 475 kts 137°
2026-04-23 14:45 42.65326 20.30185 39036 ft 474 kts 137°
2026-04-23 14:46 42.60110 20.35693 39034 ft 475 kts 137°
2026-04-23 14:46 42.54894 20.41191 39035 ft 474 kts 138°
2026-04-23 14:47 42.49721 20.46632 39035 ft 474 kts 138°
2026-04-23 14:47 42.44522 20.52089 39034 ft 472 kts 138°
2026-04-23 14:48 42.39314 20.57544 39037 ft 473 kts 138°
2026-04-23 14:48 42.34108 20.62984 39037 ft 473 kts 138°
2026-04-23 14:49 42.29026 20.68289 39037 ft 472 kts 139°
2026-04-23 14:49 42.23811 20.73719 39036 ft 472 kts 139°
2026-04-23 14:50 42.18611 20.79118 39041 ft 472 kts 139°
2026-04-23 14:50 42.13390 20.84531 39043 ft 474 kts 139°
2026-04-23 14:51 42.08160 20.89936 39035 ft 473 kts 139°
2026-04-23 14:51 42.02920 20.95346 39034 ft 475 kts 140°
2026-04-23 14:52 41.97708 21.00710 39026 ft 474 kts 140°
2026-04-23 14:52 41.92463 21.06098 39022 ft 474 kts 140°
2026-04-23 14:53 41.87215 21.11478 39022 ft 475 kts 140°
2026-04-23 14:53 41.81954 21.16864 39017 ft 477 kts 141°
2026-04-23 14:54 41.76738 21.22189 39015 ft 478 kts 141°
2026-04-23 14:54 41.71441 21.27583 39010 ft 478 kts 141°
2026-04-23 14:55 41.66137 21.32975 39010 ft 478 kts 141°
2026-04-23 14:55 41.60869 21.38318 39007 ft 478 kts 141°
2026-04-23 14:56 41.55551 21.43705 39013 ft 481 kts 141°
2026-04-23 14:56 41.50214 21.49095 39012 ft 480 kts 141°
2026-04-23 14:57 41.44956 21.54394 39012 ft 480 kts 141°
2026-04-23 14:57 41.39618 21.59764 39012 ft 480 kts 141°
2026-04-23 14:58 41.34282 21.65120 39015 ft 480 kts 141°
2026-04-23 14:58 41.28922 21.70491 39012 ft 483 kts 142°
2026-04-23 14:59 41.23557 21.75855 39011 ft 482 kts 142°
2026-04-23 14:59 41.18219 21.81185 39009 ft 484 kts 142°
2026-04-23 15:00 41.12843 21.86544 39009 ft 483 kts 142°
2026-04-23 15:00 41.07438 21.91838 39009 ft 484 kts 145°
2026-04-23 15:01 41.01720 21.96642 39003 ft 487 kts 147°
2026-04-23 15:01 40.96007 22.01470 39004 ft 486 kts 147°
2026-04-23 15:02 40.90280 22.06296 39004 ft 489 kts 147°
2026-04-23 15:02 40.84544 22.11105 39000 ft 488 kts 147°
2026-04-23 15:03 40.78849 22.15868 38999 ft 489 kts 148°
2026-04-23 15:03 40.73068 22.20690 38996 ft 488 kts 148°
2026-04-23 15:04 40.67360 22.25442 38996 ft 488 kts 148°
2026-04-23 15:04 40.61609 22.30221 38999 ft 488 kts 148°
2026-04-23 15:05 40.55860 22.34988 38999 ft 488 kts 148°
2026-04-23 15:05 40.50111 22.39746 38999 ft 488 kts 148°
2026-04-23 15:06 40.44365 22.44491 39001 ft 488 kts 148°
2026-04-23 15:06 40.38602 22.49241 39004 ft 489 kts 148°
2026-04-23 15:07 40.32838 22.53983 39006 ft 489 kts 148°
2026-04-23 15:07 40.27099 22.58693 39007 ft 489 kts 148°
2026-04-23 15:08 40.21325 22.63422 39010 ft 489 kts 148°
2026-04-23 15:09 40.12667 22.70496 39010 ft 489 kts 149°
2026-04-23 15:09 40.06881 22.75214 39008 ft 490 kts 149°
2026-04-23 15:10 40.02073 22.79124 39006 ft 489 kts 149°
2026-04-23 15:10 39.95325 22.84602 39007 ft 489 kts 149°
2026-04-23 15:11 39.89548 22.89281 39003 ft 482 kts 149°
2026-04-23 15:11 39.86741 22.91554 39003 ft 469 kts 149°
2026-04-23 15:11 39.84032 22.93745 39005 ft 463 kts 150°
2026-04-23 15:12 39.78524 22.98186 39012 ft 469 kts 150°
2026-04-23 15:12 39.72967 23.02660 39012 ft 468 kts 150°
2026-04-23 15:13 39.67411 23.07126 38799 ft 470 kts 150°
2026-04-23 15:13 39.64671 23.09326 38561 ft 467 kts 150°
2026-04-23 15:13 39.61903 23.11547 38291 ft 466 kts 150°
2026-04-23 15:13 39.59143 23.13760 38009 ft 467 kts 150°
2026-04-23 15:14 39.56370 23.15979 37740 ft 468 kts 150°
2026-04-23 15:14 39.53596 23.18197 37469 ft 468 kts 150°
2026-04-23 15:14 39.50858 23.20384 37225 ft 469 kts 150°
2026-04-23 15:14 39.48074 23.22606 36963 ft 469 kts 151°
2026-04-23 15:15 39.45294 23.24823 36706 ft 470 kts 151°
2026-04-23 15:15 39.42510 23.27041 36455 ft 470 kts 151°
2026-04-23 15:15 39.39722 23.29259 36206 ft 471 kts 151°
2026-04-23 15:15 39.36932 23.31478 35957 ft 471 kts 151°
2026-04-23 15:16 39.34136 23.33702 35698 ft 472 kts 152°
2026-04-23 15:16 39.31439 23.35844 35472 ft 472 kts 152°
2026-04-23 15:16 39.28635 23.38067 35232 ft 473 kts 152°
2026-04-23 15:16 39.25834 23.40286 34992 ft 473 kts 152°
2026-04-23 15:17 39.23069 23.42474 34762 ft 473 kts 152°
2026-04-23 15:17 39.20258 23.44698 34529 ft 473 kts 152°
2026-04-23 15:17 39.17445 23.46921 34243 ft 474 kts 153°
2026-04-23 15:17 39.14624 23.49147 33553 ft 476 kts 153°
2026-04-23 15:18 39.11790 23.51381 32604 ft 481 kts 153°
2026-04-23 15:18 39.08940 23.53632 31839 ft 479 kts 154°
2026-04-23 15:18 39.07057 23.55120 31341 ft 478 kts 154°
2026-04-23 15:18 39.04236 23.57346 30815 ft 472 kts 155°
2026-04-23 15:19 39.01451 23.59539 30251 ft 467 kts 155°
2026-04-23 15:19 38.98691 23.61709 29630 ft 462 kts 155°
2026-04-23 15:19 38.95904 23.63652 29085 ft 448 kts 163°
2026-04-23 15:19 38.93030 23.65006 28552 ft 432 kts 173°
2026-04-23 15:20 38.90177 23.65778 28043 ft 416 kts 181°
2026-04-23 15:20 38.87328 23.66182 27411 ft 411 kts 182°
2026-04-23 15:20 38.84467 23.66586 26465 ft 415 kts 183°
2026-04-23 15:20 38.81579 23.67001 25728 ft 416 kts 183°
2026-04-23 15:21 38.78869 23.67402 25358 ft 413 kts 183°
2026-04-23 15:21 38.76011 23.67822 24882 ft 412 kts 183°
2026-04-23 15:21 38.73204 23.68235 24398 ft 409 kts 183°
2026-04-23 15:21 38.70381 23.68649 23856 ft 406 kts 183°
2026-04-23 15:22 38.67596 23.69061 23345 ft 397 kts 183°
2026-04-23 15:22 38.64902 23.69461 22839 ft 382 kts 183°
2026-04-23 15:22 38.62314 23.69846 22410 ft 366 kts 184°
2026-04-23 15:22 38.59764 23.70207 21954 ft 381 kts 183°
2026-04-23 15:23 38.57029 23.70568 21563 ft 409 kts 182°
2026-04-23 15:23 38.54135 23.70969 21491 ft 426 kts 181°
2026-04-23 15:23 38.51176 23.71401 21455 ft 428 kts 181°
2026-04-23 15:23 38.48220 23.71845 21400 ft 429 kts 181°
2026-04-23 15:24 38.45292 23.72287 21155 ft 414 kts 181°
2026-04-23 15:24 38.42485 23.72712 20594 ft 399 kts 181°
2026-04-23 15:24 38.39765 23.73110 19952 ft 388 kts 181°
2026-04-23 15:24 38.37078 23.73492 19368 ft 395 kts 180°
2026-04-23 15:25 38.34339 23.73870 18794 ft 401 kts 180°
2026-04-23 15:25 38.31624 23.74256 18219 ft 397 kts 179°
2026-04-23 15:25 38.28893 23.74650 17570 ft 392 kts 179°
2026-04-23 15:25 38.26201 23.75039 16930 ft 388 kts 179°
2026-04-23 15:26 38.23529 23.75426 16299 ft 384 kts 178°
2026-04-23 15:26 38.20879 23.75809 15686 ft 380 kts 178°
2026-04-23 15:26 38.18305 23.75920 15090 ft 371 kts 191°
2026-04-23 15:26 38.15810 23.75136 14491 ft 359 kts 207°
2026-04-23 15:27 38.13671 23.73597 13911 ft 350 kts 218°
2026-04-23 15:27 38.11650 23.71878 13275 ft 348 kts 217°
2026-04-23 15:27 38.09645 23.70184 12640 ft 345 kts 217°
2026-04-23 15:27 38.07647 23.68506 12014 ft 343 kts 217°
2026-04-23 15:28 38.05685 23.66862 11406 ft 342 kts 217°
2026-04-23 15:28 38.03705 23.65204 10760 ft 336 kts 217°
2026-04-23 15:28 38.01771 23.63586 10009 ft 332 kts 216°
2026-04-23 15:28 37.99853 23.61981 9195 ft 328 kts 216°
2026-04-23 15:29 37.97958 23.60395 8389 ft 325 kts 216°
2026-04-23 15:29 37.96073 23.58815 7616 ft 323 kts 215°
2026-04-23 15:29 37.94196 23.57247 6839 ft 321 kts 214°
2026-04-23 15:29 37.92345 23.55702 6258 ft 313 kts 214°
2026-04-23 15:30 37.90585 23.54237 6062 ft 292 kts 214°
2026-04-23 15:30 37.88951 23.52880 6006 ft 268 kts 214°
2026-04-23 15:30 37.87472 23.51652 6013 ft 255 kts 214°
2026-04-23 15:30 37.85852 23.50299 6006 ft 295 kts 214°
2026-04-23 15:31 37.84034 23.48779 6019 ft 329 kts 214°
2026-04-23 15:31 37.82039 23.47197 6007 ft 356 kts 207°
2026-04-23 15:31 37.79660 23.46317 6007 ft 351 kts 185°
2026-04-23 15:31 37.77342 23.46561 5998 ft 322 kts 163°
2026-04-23 15:32 37.75439 23.47796 5809 ft 299 kts 139°
2026-04-23 15:32 37.74215 23.49772 5606 ft 276 kts 111°
2026-04-23 15:32 37.73858 23.52028 5371 ft 256 kts 84°
2026-04-23 15:32 37.74252 23.54186 4906 ft 250 kts 69°
2026-04-23 15:33 37.74765 23.56283 4459 ft 249 kts 74°
2026-04-23 15:33 37.75055 23.58431 4063 ft 249 kts 83°
2026-04-23 15:33 37.75116 23.60582 3633 ft 246 kts 89°
2026-04-23 15:33 37.75031 23.62735 3195 ft 244 kts 93°
2026-04-23 15:34 37.74876 23.64866 3021 ft 246 kts 94°
2026-04-23 15:34 37.74695 23.67013 2986 ft 244 kts 95°
2026-04-23 15:34 37.74511 23.69145 2990 ft 244 kts 94°
2026-04-23 15:34 37.74329 23.71289 2991 ft 245 kts 95°
2026-04-23 15:35 37.74149 23.73432 2992 ft 245 kts 94°
2026-04-23 15:35 37.74045 23.75568 2987 ft 241 kts 80°
2026-04-23 15:35 37.74631 23.77491 2992 ft 235 kts 50°
2026-04-23 15:35 37.75855 23.78830 2993 ft 233 kts 34°
2026-04-23 15:36 37.77151 23.79993 2987 ft 222 kts 33°
2026-04-23 15:36 37.78388 23.81111 2995 ft 221 kts 34°
2026-04-23 15:36 37.79645 23.82267 2993 ft 220 kts 34°
2026-04-23 15:36 37.80860 23.83407 2996 ft 216 kts 34°
2026-04-23 15:37 37.82073 23.84550 2930 ft 220 kts 35°
2026-04-23 15:37 37.83302 23.85718 2625 ft 219 kts 35°
2026-04-23 15:37 37.84506 23.86863 2332 ft 215 kts 35°
2026-04-23 15:37 37.85674 23.87974 2045 ft 210 kts 35°
2026-04-23 15:38 37.86828 23.89073 1760 ft 205 kts 36°
2026-04-23 15:38 37.87960 23.90152 1467 ft 201 kts 36°
2026-04-23 15:38 37.89067 23.91205 1183 ft 196 kts 35°
2026-04-23 15:38 37.90130 23.92214 939 ft 187 kts 37°
2026-04-23 15:39 37.91137 23.93177 659 ft 174 kts 37°
2026-04-23 15:39 37.92045 23.94045 447 ft 158 kts 36°
2026-04-23 15:39 37.92864 23.94820 346 ft 133 kts 36°
2026-04-23 15:39 37.93537 23.95448 283 ft 95 kts 37°
2026-04-23 15:40 37.93738 23.95638 280 ft 1 kts 37°
2026-04-23 15:40 37.93769 23.95663 279 ft 10 kts 29°
2026-04-23 15:40 37.93863 23.95712 279 ft 19 kts 15°
2026-04-23 15:40 37.94009 23.95727 295 ft 21 kts 350°
2026-04-23 15:41 37.94019 23.95640 297 ft 13 kts 239°
2026-04-23 15:41 37.93932 23.95552 297 ft 18 kts 217°
2026-04-23 15:41 37.93870 23.95492 300 ft 1 kts 218°
2026-04-23 15:41 37.93849 23.95433 297 ft 11 kts 280°
2026-04-23 15:42 37.93893 23.95348 299 ft 13 kts 307°
2026-04-23 15:42 37.93936 23.95275 300 ft 7 kts 307°
2026-04-23 15:42 37.93960 23.95235 300 ft 7 kts 307°
2026-04-23 15:42 37.94003 23.95210 300 ft 7 kts 25°
2026-04-23 15:43 37.94046 23.95247 300 ft 1 kts 37°
2026-04-23 15:43 37.94048 23.95249 300 ft 0 kts 37°
2026-04-23 15:53 37.94049 23.95248 300 ft 0 kts 35°